Wind_Speed
74 72 72 72 72 71 71 73 78 80 76 66 54 46 40 36 32 28 19 8 5 14 21 26 29 32 34 37 40 44 50 61 71 78 81 81 84 92 102 104 99 96 98
72 71 71 71 71 70 71 73 78 79 73 62 50 41 36 32 30 27 23 14 6 6 13 19 24 28 30 33 37 41 46 55 66 74 80 79 79 84 94 102 101 97 97
70 69 69 69 70 70 71 73 76 78 72 60 47 38 32 28 26 24 20 14 7 2 8 14 20 24 27 29 33 37 42 49 60 69 76 79 76 78 86 97 101 98 96
68 68 67 68 69 70 71 72 75 77 73 62 47 36 29 25 22 19 16 11 5 2 8 13 17 21 23 26 29 33 38 45 55 65 72 77 76 74 77 90 99 100 97
68 67 66 66 67 69 70 71 73 76 75 67 52 38 29 24 21 17 14 10 6 6 9 12 16 18 20 22 26 30 35 41 50 60 69 74 75 72 72 81 92 99 98
67 65 64 64 66 68 70 70 71 73 75 71 60 45 33 26 22 18 15 12 9 8 9 11 13 15 17 19 23 27 33 39 47 56 65 71 73 70 68 71 82 93 98
66 64 63 63 64 67 68 69 69 71 73 73 67 54 41 32 26 21 18 14 12 9 9 9 10 12 14 17 20 25 30 36 44 53 62 68 69 67 64 64 72 83 92
65 63 62 62 63 64 66 67 67 68 70 71 70 63 50 39 32 26 22 17 14 10 7 6 6 9 12 15 19 23 28 34 42 50 58 64 65 63 60 60 63 71 82
64 62 61 61 61 62 64 65 65 66 67 69 70 68 59 47 37 31 26 21 17 12 7 3 3 7 11 15 18 22 26 32 39 47 54 60 62 59 56 54 58 64 73
63 60 60 59 60 60 61 63 64 64 65 67 68 69 66 56 44 36 30 25 20 15 9 4 3 8 12 16 19 22 25 31 38 44 51 56 58 57 52 49 51 58 66
63 59 58 58 58 59 59 61 62 63 63 64 66 67 67 63 53 42 35 29 22 16 11 6 7 10 14 17 19 21 25 30 36 41 46 51 54 54 50 45 45 51 60
62 59 57 57 57 57 57 58 59 60 61 61 62 64 65 64 60 50 41 34 27 19 13 9 9 12 16 18 20 21 24 29 33 37 41 46 49 50 48 44 42 46 55
62 59 57 56 55 55 55 56 56 58 58 58 59 61 63 63 62 57 49 40 31 23 15 11 11 14 17 18 20 21 24 27 30 34 36 40 43 46 47 44 42 45 52
60 58 56 55 54 54 54 54 54 55 56 56 57 58 59 61 62 62 56 46 36 27 18 12 12 14 17 18 19 20 22 24 26 28 31 34 38 41 43 44 44 47 51
59 58 56 54 53 53 53 53 53 54 55 56 56 56 56 58 60 61 59 53 43 33 23 14 11 13 15 16 17 19 20 21 22 23 25 28 31 35 39 43 45 48 52
58 57 55 53 51 50 51 52 53 53 53 54 55 55 55 56 57 57 57 55 50 40 28 18 11 10 13 14 15 17 18 19 19 19 19 21 24 28 33 38 44 49 54
57 56 54 52 50 49 48 48 49 51 51 51 52 52 53 53 52 53 53 53 52 46 36 25 14 8 10 12 13 15 16 17 17 17 16 17 18 21 25 31 38 46 53
55 54 53 51 50 48 47 46 46 47 48 49 49 49 49 49 49 49 49 49 49 48 43 34 22 10 6 9 12 14 15 17 17 16 16 15 16 17 20 24 32 40 48
54 53 52 51 49 48 47 46 45 45 45 46 46 47 46 46 46 46 46 45 45 44 44 41 32 20 8 5 10 13 15 17 17 17 16 16 16 16 18 21 27 35 42
53 52 51 50 48 47 47 46 44 43 43 43 44 44 43 43 43 42 42 41 41 40 40 40 38 31 20 7 5 12 15 17 17 18 17 17 16 17 18 20 25 31 38
52 51 50 49 48 47 46 45 44 43 42 42 42 42 42 41 40 40 39 39 38 37 36 35 35 34 30 20 8 4 12 16 18 19 19 18 18 18 19 21 24 30 37
50 51 50 49 47 46 45 45 44 44 42 41 40 40 39 39 38 37 37 37 36 35 34 32 31 30 29 27 21 10 2 11 17 19 21 21 20 20 21 22 24 29 35
49 49 49 48 47 46 44 44 44 43 43 41 39 38 37 37 36 35 34 34 34 34 33 31 29 27 26 24 23 20 12 2 10 17 21 23 24 24 23 24 25 28 32
47 48 48 47 47 45 44 43 43 43 42 41 39 37 36 35 34 33 33 32 33 32 32 30 28 26 24 23 21 20 18 12 4 7 17 22 25 27 27 27 27 29 32
45 46 47 47 46 45 44 42 42 42 41 40 38 36 35 34 33 32 31 31 31 31 31 30 28 26 24 23 22 20 19 16 11 5 7 16 23 27 30 31 31 31 32
44 44 45 46 46 45 43 42 41 41 40 39 37 35 34 33 32 31 29 29 29 30 30 29 28 26 25 24 24 23 21 18 15 10 7 10 17 25 30 34 36 35 35
Wind_Direction
345 346 347 348 350 350 351 351 352 351 350 349 348 351 358 7 16 23 30 44 186 211 220 226 231 233 234 232 229 225 218 213 212 213 213 212 211 210 207 204 204 208 211
346 348 349 351 353 354 354 355 356 356 355 353 351 353 1 13 24 33 40 51 81 187 216 225 229 231 233 231 228 224 219 213 210 210 211 211 211 209 208 204 202 204 209
348 350 352 354 356 357 358 359 359 -0 0 358 354 353 360 12 23 29 35 42 56 154 214 223 228 229 231 229 227 223 218 212 208 208 210 209 210 209 208 205 202 202 205
350 352 354 356 358 360 1 1 2 3 5 4 -0 356 355 1 11 17 18 20 13 268 232 230 231 230 229 227 224 220 216 211 207 206 208 208 209 208 208 207 205 203 202
352 353 355 358 0 2 3 4 4 6 8 9 7 2 356 351 356 359 356 351 330 282 253 241 234 229 227 222 218 216 213 209 205 203 205 207 207 208 208 207 208 206 202
353 355 357 359 2 3 5 5 6 8 10 12 12 8 3 356 352 348 341 332 315 287 264 250 238 229 221 214 211 210 208 205 202 200 202 205 206 207 207 209 209 209 207
355 356 358 360 2 4 6 7 8 10 12 14 15 13 10 6 360 354 346 337 326 304 280 258 238 224 212 206 204 203 202 201 199 198 199 203 204 205 207 209 211 212 211
356 358 359 0 3 5 7 8 9 11 13 15 16 17 15 11 7 4 359 354 345 333 310 274 235 210 198 195 194 193 194 195 195 194 196 200 202 204 206 209 211 213 214
358 359 359 1 4 6 7 9 11 12 14 15 17 19 18 16 13 10 6 3 360 356 350 320 206 185 180 179 180 182 186 189 189 190 193 198 201 203 206 210 213 214 216
359 359 0 2 5 7 8 10 12 13 14 16 18 19 20 20 18 15 12 10 9 10 15 37 133 157 162 163 166 171 177 182 183 185 190 195 199 202 206 209 213 214 216
0 0 1 4 6 7 9 11 12 14 15 16 18 19 20 21 21 19 18 16 15 19 30 60 111 137 147 152 156 162 168 174 177 181 186 193 197 202 206 209 212 213 213
1 2 3 5 7 8 10 11 13 15 16 17 18 19 21 22 23 23 22 20 21 25 38 69 107 130 139 143 148 154 161 167 173 178 184 191 197 202 206 210 212 211 209
2 2 3 5 7 9 11 12 13 15 16 17 18 19 21 22 24 26 25 24 25 29 42 72 106 128 136 140 143 149 157 163 169 176 184 191 198 204 208 211 214 211 206
2 3 3 4 7 9 11 12 13 15 16 18 19 20 20 21 24 27 27 27 27 31 42 69 104 127 137 141 143 148 153 160 167 176 185 194 201 207 211 214 216 212 205
2 3 3 4 5 7 9 12 13 14 16 18 19 20 21 21 23 25 26 28 29 32 39 59 96 127 139 144 147 150 154 159 167 176 187 197 205 211 215 218 217 213 208
1 3 4 4 4 5 7 9 12 14 16 17 18 19 20 21 22 24 25 27 29 32 36 47 78 122 142 150 153 156 159 163 169 178 188 198 207 213 217 218 217 213 209
0 2 4 4 4 5 6 8 10 12 13 15 16 18 19 20 21 23 24 26 28 30 34 39 54 101 144 158 164 166 168 171 175 182 191 200 207 211 213 213 211 209 207
359 1 2 3 4 4 5 5 7 10 12 13 14 16 18 19 20 22 23 25 26 29 32 35 40 56 128 168 176 179 180 181 183 187 192 197 202 204 204 203 201 201 201
358 0 1 2 3 4 4 4 5 6 9 11 12 13 15 17 19 20 22 23 25 27 30 32 35 39 54 164 188 191 192 192 192 192 193 194 195 196 197 195 193 192 193
357 359 0 1 2 3 4 4 4 3 4 7 10 12 13 14 17 19 21 21 23 24 27 29 32 35 37 46 191 201 202 201 200 198 196 195 194 194 194 193 190 189 189
356 358 359 359 0 1 3 4 4 3 3 4 6 8 10 11 14 17 19 21 22 22 24 26 28 31 33 36 39 206 211 210 207 204 201 199 195 193 192 192 191 189 188
355 357 357 358 358 359 1 2 3 3 3 2 3 5 7 8 10 13 16 18 20 21 22 22 24 26 28 32 34 34 232 218 215 211 206 203 199 196 193 192 191 191 189
355 356 356 356 356 357 359 0 1 2 2 2 2 3 4 6 8 10 13 16 18 19 20 20 21 21 23 25 27 30 30 349 224 219 214 209 205 201 197 194 192 191 192
354 355 355 355 355 356 357 358 359 0 1 1 1 2 3 4 6 8 10 13 15 17 18 18 19 19 19 19 20 20 20 19 357 230 222 217 211 207 203 199 195 194 194
353 354 354 354 354 354 355 356 358 359 360 0 1 1 2 3 4 6 8 10 13 14 15 17 18 18 18 17 15 12 8 5 359 331 237 221 217 213 209 204 201 198 196
351 353 353 353 353 353 354 355 356 357 358 359 360 1 2 2 3 4 6 8 11 12 14 16 18 19 19 17 13 8 2 355 344 327 288 241 222 217 213 210 206 203 200
Height
5547 5529 5511 5493 5474 5455 5436 5417 5395 5371 5348 5327 5312 5301 5292 5282 5272 5265 5261 5261 5265 5271 5278 5284 5290 5296 5302 5308 5314 5322 5331 5343 5358 5373 5390 5406 5424 5443 5465 5490 5512 5531 5550
5543 5525 5507 5489 5471 5452 5434 5414 5392 5369 5346 5327 5312 5303 5295 5287 5280 5274 5270 5269 5271 5274 5277 5281 5285 5290 5295 5300 5306 5314 5323 5334 5348 5363 5379 5396 5413 5431 5452 5475 5497 5516 5535
5539 5522 5504 5487 5469 5451 5432 5413 5392 5370 5348 5329 5314 5305 5298 5292 5286 5281 5278 5276 5276 5276 5277 5279 5281 5285 5290 5295 5301 5308 5316 5326 5339 5354 5369 5387 5404 5422 5440 5461 5482 5501 5521
5536 5519 5502 5485 5467 5449 5431 5412 5393 5373 5351 5332 5317 5307 5300 5295 5290 5286 5283 5281 5279 5277 5277 5278 5279 5282 5286 5290 5296 5303 5311 5320 5332 5346 5360 5378 5396 5414 5431 5449 5468 5487 5507
5534 5518 5501 5484 5467 5449 5432 5414 5396 5376 5356 5337 5321 5310 5302 5297 5292 5288 5285 5282 5280 5278 5277 5277 5278 5280 5283 5287 5292 5298 5306 5315 5326 5339 5353 5370 5388 5406 5421 5439 5456 5473 5494
5533 5516 5500 5484 5468 5451 5434 5417 5399 5381 5362 5343 5327 5315 5306 5299 5293 5289 5285 5281 5279 5277 5275 5275 5276 5278 5281 5284 5289 5295 5302 5310 5321 5333 5347 5363 5382 5400 5417 5432 5448 5463 5482
5531 5515 5500 5484 5469 5453 5436 5420 5403 5386 5368 5350 5334 5320 5309 5301 5294 5289 5284 5280 5277 5275 5274 5273 5274 5276 5279 5283 5287 5293 5299 5307 5317 5329 5343 5359 5378 5396 5413 5428 5440 5452 5469
5530 5514 5500 5485 5470 5455 5440 5424 5408 5391 5375 5358 5342 5327 5315 5305 5297 5290 5284 5280 5277 5274 5272 5272 5273 5275 5278 5282 5287 5292 5299 5306 5315 5327 5341 5358 5375 5391 5405 5419 5431 5445 5460
5530 5515 5501 5487 5472 5458 5443 5429 5413 5398 5382 5367 5351 5336 5322 5310 5301 5293 5287 5282 5278 5274 5273 5272 5273 5275 5279 5283 5287 5293 5299 5306 5315 5326 5340 5356 5372 5388 5401 5414 5426 5439 5451
5530 5516 5503 5489 5474 5460 5447 5433 5418 5404 5389 5374 5359 5344 5331 5317 5306 5298 5290 5285 5280 5276 5275 5274 5275 5277 5281 5285 5290 5295 5301 5308 5317 5328 5341 5355 5370 5385 5397 5409 5420 5431 5443
5531 5518 5504 5490 5477 5463 5450 5437 5423 5409 5395 5380 5367 5353 5339 5326 5314 5304 5296 5289 5284 5280 5278 5278 5279 5281 5284 5289 5294 5299 5305 5312 5320 5330 5342 5355 5369 5382 5393 5403 5413 5423 5436
5533 5519 5506 5493 5480 5467 5454 5441 5428 5416 5403 5390 5377 5364 5350 5337 5324 5311 5302 5295 5289 5285 5283 5283 5284 5286 5290 5294 5299 5304 5310 5316 5324 5334 5344 5356 5367 5379 5389 5399 5407 5417 5428
5533 5520 5508 5495 5483 5471 5459 5447 5435 5423 5411 5399 5386 5373 5360 5348 5335 5322 5310 5302 5296 5292 5289 5289 5290 5293 5296 5300 5304 5309 5315 5321 5328 5337 5346 5356 5366 5375 5385 5394 5402 5411 5421
5534 5521 5508 5497 5486 5475 5463 5452 5441 5430 5419 5406 5393 5381 5369 5357 5345 5332 5321 5312 5304 5299 5297 5296 5297 5299 5303 5306 5310 5314 5320 5325 5332 5339 5347 5355 5364 5372 5380 5388 5396 5405 5415
5534 5522 5509 5498 5486 5476 5467 5457 5446 5434 5422 5411 5400 5389 5378 5366 5353 5342 5332 5322 5314 5308 5305 5303 5304 5306 5309 5312 5316 5319 5324 5329 5335 5341 5348 5355 5361 5368 5375 5382 5390 5399 5409
5536 5523 5511 5500 5489 5478 5468 5457 5448 5438 5427 5417 5406 5395 5385 5374 5364 5354 5344 5334 5325 5318 5313 5311 5311 5312 5314 5317 5321 5324 5328 5332 5337 5343 5348 5353 5358 5364 5369 5375 5383 5392 5402
5537 5525 5513 5503 5492 5482 5473 5463 5453 5442 5432 5423 5413 5403 5393 5383 5374 5365 5355 5346 5337 5329 5323 5319 5317 5318 5319 5322 5325 5328 5331 5335 5339 5344 5348 5352 5357 5361 5365 5370 5376 5384 5395
5538 5526 5516 5505 5494 5484 5475 5466 5457 5448 5439 5429 5419 5410 5401 5392 5383 5374 5365 5357 5349 5341 5333 5327 5324 5323 5323 5325 5328 5331 5334 5338 5341 5345 5349 5352 5356 5359 5362 5366 5371 5378 5388
5539 5527 5516 5506 5496 5486 5477 5468 5459 5450 5442 5434 5425 5416 5407 5399 5390 5382 5373 5366 5358 5351 5343 5337 5332 5328 5327 5328 5330 5333 5336 5339 5342 5346 5349 5352 5355 5358 5361 5365 5369 5376 5384
5540 5528 5517 5507 5498 5488 5478 5469 5460 5452 5445 5437 5429 5421 5413 5405 5397 5389 5381 5374 5366 5359 5352 5346 5340 5335 5332 5331 5331 5333 5336 5339 5342 5346 5349 5352 5355 5358 5361 5365 5369 5375 5382
5540 5529 5518 5508 5499 5489 5480 5471 5462 5454 5446 5438 5431 5423 5416 5408 5401 5394 5387 5380 5373 5366 5360 5354 5348 5343 5339 5335 5334 5334 5336 5338 5341 5345 5348 5351 5354 5358 5361 5365 5369 5374 5381
5540 5529 5518 5509 5499 5490 5481 5472 5464 5455 5447 5439 5432 5425 5418 5411 5404 5397 5391 5384 5377 5371 5365 5360 5354 5350 5345 5341 5338 5336 5336 5337 5340 5343 5347 5350 5354 5357 5361 5364 5369 5374 5380
5540 5529 5519 5509 5500 5491 5482 5473 5465 5456 5448 5440 5433 5427 5420 5414 5407 5401 5394 5388 5382 5375 5370 5364 5359 5355 5350 5346 5343 5340 5338 5337 5338 5341 5344 5348 5352 5356 5360 5363 5368 5373 5379
5539 5529 5518 5509 5499 5491 5482 5473 5465 5457 5449 5441 5434 5428 5421 5415 5409 5403 5397 5391 5385 5379 5373 5368 5363 5358 5354 5350 5347 5343 5341 5339 5338 5338 5341 5344 5348 5353 5357 5362 5366 5371 5376
5537 5528 5518 5508 5499 5490 5482 5473 5465 5457 5450 5442 5435 5429 5422 5416 5410 5404 5399 5393 5387 5382 5376 5370 5365 5361 5356 5353 5349 5346 5343 5340 5338 5337 5337 5339 5343 5348 5353 5358 5363 5368 5373
5536 5526 5517 5507 5498 5489 5481 5473 5465 5458 5450 5443 5436 5429 5423 5417 5411 5406 5400 5395 5389 5384 5378 5373 5368 5363 5359 5355 5351 5347 5343 5339 5336 5335 5334 5335 5337 5341 5346 5352 5358 5363 5369